,,,PA_Meas_PMT16A,,PR_Meas_QMR101_102,,RH_Meas_QMH101,,SR_Meas_QMS101,,TA_Meas_QMH101,,GenWind,,GenWind,
date,time,status,PA,status,PR,status,RH,status,SR,status,TA,status,DirAvg,status,SpdAvg,
2010-09-29, 00:00:04,VALID,1010.55,VALID,0,VALID,103.161,VALID,0.105969,VALID,23.965,VALID,84,VALID,0.722266,
2010-09-29, 00:01:04,VALID,1010.56,VALID,0,VALID,103.161,VALID,0.105969,VALID,23.965,VALID,81,VALID,0.782422,
2010-09-29, 00:02:04,VALID,1010.54,VALID,0,VALID,103.169,VALID,0.105969,VALID,23.965,VALID,78,VALID,0.819141,
2010-09-29, 00:03:04,VALID,1010.51,VALID,0,VALID,103.199,VALID,0.105969,VALID,23.965,VALID,35,VALID,0.43125,
2010-09-29, 00:04:04,VALID,1010.52,VALID,0,VALID,103.199,VALID,0.105969,VALID,23.9455,VALID,51,VALID,0.533594,
2010-09-29, 00:05:04,VALID,1010.5,VALID,0,VALID,103.207,VALID,0.105969,VALID,23.926,VALID,60,VALID,0.550391,
2010-09-29, 00:06:04,VALID,1010.48,VALID,0,VALID,103.215,VALID,0.105969,VALID,23.9065,VALID,63,VALID,0.33125,
2010-09-29, 00:07:04,VALID,1010.49,VALID,0,VALID,103.222,VALID,0,VALID,23.9278,VALID,46,VALID,0.14375,
2010-09-29, 00:08:04,VALID,1010.45,VALID,0,VALID,103.222,VALID,0,VALID,23.9084,VALID,46,VALID,0.0355469,
2010-09-29, 00:09:04,VALID,1010.44,VALID,0,VALID,103.253,VALID,0.105969,VALID,23.8676,VALID,46,VALID,0,
2010-09-29, 00:10:04,VALID,1010.43,VALID,0,VALID,103.245,VALID,0,VALID,23.8676,VALID,53,VALID,0.746484,
2010-09-29, 00:11:04,VALID,1010.42,VALID,0,VALID,103.253,VALID,0,VALID,23.8694,VALID,28,VALID,0,
2010-09-29, 00:12:04,VALID,1010.37,VALID,0,VALID,103.276,VALID,0.105969,VALID,23.8286,VALID,28,VALID,0,
2010-09-29, 00:13:04,VALID,1010.38,VALID,0,VALID,103.26,VALID,0.105969,VALID,23.8286,VALID,28,VALID,0,
2010-09-29, 00:14:04,VALID,1010.34,VALID,0,VALID,103.268,VALID,0.105969,VALID,23.8286,VALID,28,VALID,0,
2010-09-29, 00:15:04,VALID,1010.32,VALID,0,VALID,103.276,VALID,0,VALID,23.8091,VALID,28,VALID,0,
2010-09-29, 00:16:04,VALID,1010.31,VALID,0,VALID,103.276,VALID,0.105969,VALID,23.8109,VALID,28,VALID,0,
2010-09-29, 00:17:04,VALID,1010.29,VALID,0,VALID,103.283,VALID,0.105969,VALID,23.8091,VALID,28,VALID,0,
2010-09-29, 00:18:04,VALID,1010.27,VALID,0,VALID,103.283,VALID,0,VALID,23.8091,VALID,28,VALID,0,
2010-09-29, 00:19:04,VALID,1010.26,VALID,0,VALID,103.268,VALID,0,VALID,23.8091,VALID,28,VALID,0,
2010-09-29, 00:20:04,VALID,1010.24,VALID,0,VALID,103.298,VALID,0.105969,VALID,23.8091,VALID,28,VALID,0,
2010-09-29, 00:21:04,VALID,1010.23,VALID,0,VALID,103.291,VALID,0.105969,VALID,23.7896,VALID,29,VALID,0.336328,
2010-09-29, 00:22:04,VALID,1010.21,VALID,0,VALID,103.306,VALID,0,VALID,23.8127,VALID,29,VALID,0.0746094,
2010-09-29, 00:23:04,VALID,1010.19,VALID,0,VALID,103.291,VALID,0,VALID,23.7932,VALID,29,VALID,0,
2010-09-29, 00:24:04,VALID,1010.17,VALID,0,VALID,103.276,VALID,0,VALID,23.772,VALID,29,VALID,0,
2010-09-29, 00:25:04,VALID,1010.15,VALID,0,VALID,103.298,VALID,0,VALID,23.772,VALID,55,VALID,0.424609,
2010-09-29, 00:26:04,VALID,1010.13,VALID,0,VALID,103.298,VALID,0,VALID,23.772,VALID,56,VALID,0.00195313,
2010-09-29, 00:27:04,VALID,1010.13,VALID,0,VALID,103.298,VALID,0,VALID,23.772,VALID,56,VALID,0,
2010-09-29, 00:28:04,VALID,1010.09,VALID,0,VALID,103.298,VALID,0,VALID,23.7932,VALID,56,VALID,0,
2010-09-29, 00:29:04,VALID,1010.07,VALID,0,VALID,103.283,VALID,0,VALID,23.7525,VALID,44,VALID,0.0429688,
2010-09-29, 00:30:04,VALID,1010.11,VALID,0,VALID,103.276,VALID,0,VALID,23.7525,VALID,44,VALID,0,
2010-09-29, 00:31:04,VALID,1010.06,VALID,0,VALID,103.298,VALID,0,VALID,23.772,VALID,355,VALID,0.311719,
2010-09-29, 00:32:04,VALID,1010.05,VALID,0,VALID,103.283,VALID,0,VALID,23.7525,VALID,355,VALID,0.189453,
2010-09-29, 00:33:04,VALID,1010.01,VALID,0,VALID,103.291,VALID,0,VALID,23.733,VALID,355,VALID,0,
2010-09-29, 00:34:04,VALID,1009.98,VALID,0,VALID,103.298,VALID,0,VALID,23.7543,VALID,355,VALID,0,
2010-09-29, 00:35:04,VALID,1009.97,VALID,0,VALID,103.291,VALID,0,VALID,23.733,VALID,355,VALID,0.0117188,
2010-09-29, 00:36:04,VALID,1009.97,VALID,0,VALID,103.26,VALID,0,VALID,23.7525,VALID,355,VALID,0,
2010-09-29, 00:37:04,VALID,1009.94,VALID,0,VALID,103.276,VALID,0,VALID,23.7525,VALID,355,VALID,0,
2010-09-29, 00:38:04,VALID,1009.94,VALID,0,VALID,103.26,VALID,0,VALID,23.7525,VALID,355,VALID,0,
2010-09-29, 00:39:04,VALID,1009.91,VALID,0,VALID,103.26,VALID,0,VALID,23.7738,VALID,355,VALID,0,
2010-09-29, 00:40:04,VALID,1009.89,VALID,0,VALID,103.245,VALID,0,VALID,23.7525,VALID,355,VALID,0,
2010-09-29, 00:41:04,VALID,1009.9,VALID,0,VALID,103.253,VALID,0,VALID,23.7525,VALID,355,VALID,0,
2010-09-29, 00:42:04,VALID,1009.88,VALID,0,VALID,103.26,VALID,0,VALID,23.7525,VALID,355,VALID,0,
2010-09-29, 00:43:04,VALID,1009.87,VALID,0,VALID,103.245,VALID,0,VALID,23.7525,VALID,355,VALID,0,
2010-09-29, 00:44:04,VALID,1009.86,VALID,0,VALID,103.253,VALID,0,VALID,23.7525,VALID,355,VALID,0,
2010-09-29, 00:45:04,VALID,1009.87,VALID,0,VALID,103.237,VALID,0,VALID,23.7932,VALID,355,VALID,0,
2010-09-29, 00:46:04,VALID,1009.86,VALID,0,VALID,103.237,VALID,0,VALID,23.772,VALID,355,VALID,0,
2010-09-29, 00:47:04,VALID,1009.85,VALID,0,VALID,103.222,VALID,0,VALID,23.7738,VALID,355,VALID,0,
2010-09-29, 00:48:04,VALID,1009.85,VALID,0,VALID,103.222,VALID,0,VALID,23.7738,VALID,355,VALID,0,
2010-09-29, 00:49:04,VALID,1009.85,VALID,0,VALID,103.222,VALID,0,VALID,23.7525,VALID,355,VALID,0,
2010-09-29, 00:50:04,VALID,1009.87,VALID,0,VALID,103.215,VALID,0,VALID,23.772,VALID,355,VALID,0,
2010-09-29, 00:51:04,VALID,1009.87,VALID,0,VALID,103.207,VALID,0,VALID,23.7525,VALID,355,VALID,0,
2010-09-29, 00:52:04,VALID,1009.87,VALID,0,VALID,103.215,VALID,0,VALID,23.772,VALID,355,VALID,0,
2010-09-29, 00:53:04,VALID,1009.85,VALID,0,VALID,103.207,VALID,0.105969,VALID,23.7507,VALID,355,VALID,0.00664063,
2010-09-29, 00:54:04,VALID,1009.87,VALID,0,VALID,103.199,VALID,0.105969,VALID,23.7914,VALID,355,VALID,0,
2010-09-29, 00:55:04,VALID,1009.84,VALID,0,VALID,103.169,VALID,0.105969,VALID,23.7701,VALID,355,VALID,0,
2010-09-29, 00:56:04,VALID,1009.81,VALID,0,VALID,103.169,VALID,0.105969,VALID,23.7701,VALID,355,VALID,0,
2010-09-29, 00:57:04,VALID,1009.83,VALID,0,VALID,103.161,VALID,0,VALID,23.7896,VALID,355,VALID,0,
2010-09-29, 00:58:04,VALID,1009.82,VALID,0,VALID,103.146,VALID,0.105969,VALID,23.7896,VALID,355,VALID,0,
2010-09-29, 00:59:04,VALID,1009.82,VALID,0,VALID,103.138,VALID,0.105969,VALID,23.7896,VALID,355,VALID,0,
2010-09-29, 01:00:04,VALID,1009.8,VALID,0,VALID,103.123,VALID,0,VALID,23.8091,VALID,355,VALID,0,
2010-09-29, 01:01:04,VALID,1009.82,VALID,0,VALID,103.085,VALID,0,VALID,23.8091,VALID,355,VALID,0,
2010-09-29, 01:02:04,VALID,1009.78,VALID,0,VALID,103.093,VALID,0.105969,VALID,23.8304,VALID,355,VALID,0,
2010-09-29, 01:03:04,VALID,1009.78,VALID,0,VALID,103.1,VALID,0.105969,VALID,23.8091,VALID,355,VALID,0.0046875,
2010-09-29, 01:04:04,VALID,1009.76,VALID,0,VALID,103.123,VALID,0.105969,VALID,23.8091,VALID,355,VALID,0,
2010-09-29, 01:05:04,VALID,1009.75,VALID,0,VALID,103.1,VALID,0.105969,VALID,23.8304,VALID,355,VALID,0,
2010-09-29, 01:06:04,VALID,1009.75,VALID,0,VALID,103.077,VALID,0.105969,VALID,23.8499,VALID,355,VALID,0,
2010-09-29, 01:07:04,VALID,1009.74,VALID,0,VALID,103.1,VALID,0.105969,VALID,23.8286,VALID,355,VALID,0,
2010-09-29, 01:08:04,VALID,1009.73,VALID,0,VALID,103.108,VALID,0.105969,VALID,23.8091,VALID,355,VALID,0,
2010-09-29, 01:09:04,VALID,1009.71,VALID,0,VALID,103.108,VALID,0.105969,VALID,23.8091,VALID,355,VALID,0,
2010-09-29, 01:10:04,VALID,1009.71,VALID,0,VALID,103.123,VALID,0,VALID,23.7896,VALID,355,VALID,0.119531,
2010-09-29, 01:11:04,VALID,1009.7,VALID,0,VALID,103.108,VALID,0.105969,VALID,23.8091,VALID,355,VALID,0,
2010-09-29, 01:12:04,VALID,1009.69,VALID,0,VALID,103.123,VALID,0.105969,VALID,23.8091,VALID,355,VALID,0,
2010-09-29, 01:13:04,VALID,1009.68,VALID,0,VALID,103.123,VALID,0.105969,VALID,23.8109,VALID,355,VALID,0,
2010-09-29, 01:14:04,VALID,1009.67,VALID,0,VALID,103.123,VALID,0,VALID,23.7896,VALID,355,VALID,0,
2010-09-29, 01:15:04,VALID,1009.66,VALID,0,VALID,103.131,VALID,0.105969,VALID,23.7896,VALID,355,VALID,0,
2010-09-29, 01:16:04,VALID,1009.65,VALID,0,VALID,103.154,VALID,0.105969,VALID,23.7896,VALID,355,VALID,0,
2010-09-29, 01:17:04,VALID,1009.62,VALID,0,VALID,103.131,VALID,0,VALID,23.8109,VALID,355,VALID,0,
2010-09-29, 01:18:04,VALID,1009.59,VALID,0,VALID,103.1,VALID,0.105969,VALID,23.8091,VALID,355,VALID,0,
2010-09-29, 01:19:04,VALID,1009.58,VALID,0,VALID,103.1,VALID,0.105969,VALID,23.8091,VALID,355,VALID,0,
2010-09-29, 01:20:04,VALID,1009.57,VALID,0,VALID,103.115,VALID,0.105969,VALID,23.8091,VALID,355,VALID,0,
2010-09-29, 01:21:04,VALID,1009.56,VALID,0,VALID,103.1,VALID,0.105969,VALID,23.8091,VALID,355,VALID,0,
2010-09-29, 01:22:04,VALID,1009.53,VALID,0,VALID,103.115,VALID,0.105969,VALID,23.7896,VALID,355,VALID,0,
2010-09-29, 01:23:04,VALID,1009.51,VALID,0,VALID,103.123,VALID,0.105969,VALID,23.8091,VALID,355,VALID,0,
2010-09-29, 01:24:04,VALID,1009.48,VALID,0,VALID,103.138,VALID,0.105969,VALID,23.7896,VALID,355,VALID,0,
2010-09-29, 01:25:04,VALID,1009.5,VALID,0,VALID,103.115,VALID,0.105969,VALID,23.7896,VALID,355,VALID,0,
2010-09-29, 01:26:04,VALID,1009.47,VALID,0,VALID,103.123,VALID,0.105969,VALID,23.7701,VALID,355,VALID,0,
2010-09-29, 01:27:04,VALID,1009.45,VALID,0,VALID,103.138,VALID,0.105969,VALID,23.7507,VALID,355,VALID,0,
2010-09-29, 01:28:04,VALID,1009.48,VALID,0,VALID,103.138,VALID,0.105969,VALID,23.7701,VALID,355,VALID,0,
2010-09-29, 01:29:04,VALID,1009.45,VALID,0,VALID,103.138,VALID,0.105969,VALID,23.7701,VALID,355,VALID,0.182422,
2010-09-29, 01:30:04,VALID,1009.44,VALID,0,VALID,103.154,VALID,0.105969,VALID,23.7507,VALID,355,VALID,0.303516,
2010-09-29, 01:31:04,VALID,1009.44,VALID,0,VALID,103.161,VALID,0.105969,VALID,23.7312,VALID,355,VALID,0.340625,
2010-09-29, 01:32:04,VALID,1009.42,VALID,0,VALID,103.169,VALID,0,VALID,23.6922,VALID,355,VALID,0,
2010-09-29, 01:33:04,VALID,1009.41,VALID,0,VALID,103.169,VALID,0.105969,VALID,23.6922,VALID,355,VALID,0,
2010-09-29, 01:34:04,VALID,1009.38,VALID,0,VALID,103.154,VALID,0.105969,VALID,23.6922,VALID,355,VALID,0,
2010-09-29, 01:35:04,VALID,1009.4,VALID,0,VALID,103.169,VALID,0.105969,VALID,23.6532,VALID,355,VALID,0,
2010-09-29, 01:36:04,VALID,1009.4,VALID,0,VALID,103.184,VALID,0.105969,VALID,23.6532,VALID,355,VALID,0,
2010-09-29, 01:37:04,VALID,1009.42,VALID,0,VALID,103.169,VALID,0.105969,VALID,23.6338,VALID,355,VALID,0,
2010-09-29, 01:38:04,VALID,1009.4,VALID,0,VALID,103.176,VALID,0.105969,VALID,23.6338,VALID,355,VALID,0,
2010-09-29, 01:39:04,VALID,1009.4,VALID,0,VALID,103.192,VALID,0.105969,VALID,23.6143,VALID,355,VALID,0,
2010-09-29, 01:40:04,VALID,1009.4,VALID,0,VALID,103.192,VALID,0.105969,VALID,23.5948,VALID,355,VALID,0,
2010-09-29, 01:41:04,VALID,1009.38,VALID,0,VALID,103.207,VALID,0.105969,VALID,23.5753,VALID,355,VALID,0,
2010-09-29, 01:42:04,VALID,1009.35,VALID,0,VALID,103.207,VALID,0.105969,VALID,23.5753,VALID,355,VALID,0,
2010-09-29, 01:43:04,VALID,1009.35,VALID,0,VALID,103.207,VALID,0.105969,VALID,23.5558,VALID,355,VALID,0,
2010-09-29, 01:44:04,VALID,1009.33,VALID,0,VALID,103.199,VALID,0.105969,VALID,23.5753,VALID,355,VALID,0,
2010-09-29, 01:45:04,VALID,1009.27,VALID,0,VALID,103.199,VALID,0.105969,VALID,23.5558,VALID,355,VALID,0,
2010-09-29, 01:46:04,VALID,1009.28,VALID,0,VALID,103.176,VALID,0.105969,VALID,23.5558,VALID,355,VALID,0,
2010-09-29, 01:47:04,VALID,1009.25,VALID,0,VALID,103.199,VALID,0.105969,VALID,23.5363,VALID,355,VALID,0,
2010-09-29, 01:48:04,VALID,1009.24,VALID,0,VALID,103.176,VALID,0.105969,VALID,23.5363,VALID,355,VALID,0,
2010-09-29, 01:49:04,VALID,1009.23,VALID,0,VALID,103.184,VALID,0,VALID,23.5169,VALID,355,VALID,0,
2010-09-29, 01:50:04,VALID,1009.19,VALID,0,VALID,103.176,VALID,0.105969,VALID,23.5169,VALID,355,VALID,0,
2010-09-29, 01:51:04,VALID,1009.16,VALID,0,VALID,103.161,VALID,0.105969,VALID,23.4974,VALID,355,VALID,0,
2010-09-29, 01:52:04,VALID,1009.14,VALID,0,VALID,103.161,VALID,0,VALID,23.4797,VALID,355,VALID,0,
2010-09-29, 01:53:05,VALID,1009.14,VALID,0,VALID,103.138,VALID,0,VALID,23.4992,VALID,355,VALID,0,
2010-09-29, 01:54:05,VALID,1009.14,VALID,0,VALID,103.115,VALID,0,VALID,23.4992,VALID,355,VALID,0,
2010-09-29, 01:55:05,VALID,1009.11,VALID,0,VALID,103.138,VALID,0,VALID,23.4992,VALID,355,VALID,0,
2010-09-29, 01:56:05,VALID,1009.09,VALID,0,VALID,103.123,VALID,0,VALID,23.4992,VALID,355,VALID,0,
2010-09-29, 01:57:05,VALID,1009.08,VALID,0,VALID,103.115,VALID,0,VALID,23.5204,VALID,355,VALID,0,
2010-09-29, 01:58:05,VALID,1009.1,VALID,0,VALID,103.123,VALID,0,VALID,23.5204,VALID,355,VALID,0,
2010-09-29, 01:59:05,VALID,1009.11,VALID,0,VALID,103.093,VALID,0,VALID,23.4992,VALID,355,VALID,0,
2010-09-29, 02:00:05,VALID,1009.1,VALID,0,VALID,103.1,VALID,0,VALID,23.5204,VALID,355,VALID,0,
2010-09-29, 02:01:05,VALID,1009.12,VALID,0,VALID,103.093,VALID,0,VALID,23.4992,VALID,355,VALID,0,
2010-09-29, 02:02:05,VALID,1009.14,VALID,0,VALID,103.07,VALID,0,VALID,23.4992,VALID,355,VALID,0,
2010-09-29, 02:03:05,VALID,1009.14,VALID,0,VALID,103.077,VALID,0,VALID,23.5186,VALID,355,VALID,0,
2010-09-29, 02:04:05,VALID,1009.13,VALID,0,VALID,103.077,VALID,0,VALID,23.4992,VALID,355,VALID,0,
2010-09-29, 02:05:05,VALID,1009.17,VALID,0,VALID,103.077,VALID,0,VALID,23.5204,VALID,355,VALID,0,
2010-09-29, 02:06:05,VALID,1009.16,VALID,0,VALID,103.062,VALID,0,VALID,23.4992,VALID,355,VALID,0,
2010-09-29, 02:07:05,VALID,1009.15,VALID,0,VALID,103.062,VALID,0,VALID,23.5186,VALID,355,VALID,0,
2010-09-29, 02:08:05,VALID,1009.15,VALID,0,VALID,103.054,VALID,0,VALID,23.5204,VALID,355,VALID,0,
2010-09-29, 02:09:05,VALID,1009.17,VALID,0,VALID,103.047,VALID,0,VALID,23.5204,VALID,355,VALID,0,
2010-09-29, 02:10:05,VALID,1009.15,VALID,0,VALID,103.07,VALID,0,VALID,23.5204,VALID,355,VALID,0,
2010-09-29, 02:11:05,VALID,1009.16,VALID,0,VALID,103.039,VALID,0,VALID,23.4992,VALID,355,VALID,0,
2010-09-29, 02:12:05,VALID,1009.13,VALID,0,VALID,103.047,VALID,0,VALID,23.4992,VALID,355,VALID,0,
2010-09-29, 02:13:05,VALID,1009.15,VALID,0,VALID,103.07,VALID,0,VALID,23.4797,VALID,355,VALID,0,
2010-09-29, 02:14:05,VALID,1009.16,VALID,0,VALID,103.062,VALID,0,VALID,23.4797,VALID,355,VALID,0,
2010-09-29, 02:15:05,VALID,1009.13,VALID,0,VALID,103.085,VALID,0,VALID,23.4797,VALID,355,VALID,0,
2010-09-29, 02:16:05,VALID,1009.13,VALID,0,VALID,103.077,VALID,0,VALID,23.5009,VALID,355,VALID,0,
2010-09-29, 02:17:05,VALID,1009.15,VALID,0,VALID,103.07,VALID,0,VALID,23.4797,VALID,355,VALID,0,
2010-09-29, 02:18:05,VALID,1009.16,VALID,0,VALID,103.077,VALID,0,VALID,23.4815,VALID,355,VALID,0,
2010-09-29, 02:19:05,VALID,1009.15,VALID,0,VALID,103.054,VALID,0,VALID,23.4815,VALID,355,VALID,0,
2010-09-29, 02:20:05,VALID,1009.16,VALID,0,VALID,103.077,VALID,0,VALID,23.4815,VALID,355,VALID,0,
2010-09-29, 02:21:05,VALID,1009.15,VALID,0,VALID,103.07,VALID,0,VALID,23.462,VALID,355,VALID,0,
2010-09-29, 02:22:05,VALID,1009.1,VALID,0,VALID,103.108,VALID,0,VALID,23.4212,VALID,355,VALID,0,
2010-09-29, 02:23:05,VALID,1009.1,VALID,0,VALID,103.123,VALID,0,VALID,23.4035,VALID,355,VALID,0,
2010-09-29, 02:24:05,VALID,1009.05,VALID,0,VALID,103.138,VALID,0,VALID,23.4035,VALID,355,VALID,0,
2010-09-29, 02:25:05,VALID,1009.03,VALID,0,VALID,103.138,VALID,0,VALID,23.3628,VALID,355,VALID,0,
2010-09-29, 02:26:05,VALID,1009,VALID,0,VALID,103.131,VALID,0,VALID,23.3433,VALID,355,VALID,0,
2010-09-29, 02:27:05,VALID,1008.99,VALID,0,VALID,103.131,VALID,0,VALID,23.3433,VALID,355,VALID,0,
2010-09-29, 02:28:05,VALID,1008.94,VALID,0,VALID,103.115,VALID,0,VALID,23.3433,VALID,355,VALID,0,
2010-09-29, 02:29:05,VALID,1008.93,VALID,0,VALID,103.093,VALID,0,VALID,23.3433,VALID,355,VALID,0,
2010-09-29, 02:30:05,VALID,1008.92,VALID,0,VALID,103.1,VALID,0,VALID,23.3433,VALID,355,VALID,0,
2010-09-29, 02:31:05,VALID,1008.89,VALID,0,VALID,103.093,VALID,0,VALID,23.3238,VALID,355,VALID,0,
2010-09-29, 02:32:05,VALID,1008.88,VALID,0,VALID,103.085,VALID,0,VALID,23.3238,VALID,355,VALID,0,
2010-09-29, 02:33:05,VALID,1008.84,VALID,0,VALID,103.062,VALID,0,VALID,23.3433,VALID,355,VALID,0,
2010-09-29, 02:34:05,VALID,1008.84,VALID,0,VALID,103.062,VALID,0,VALID,23.3433,VALID,355,VALID,0,
2010-09-29, 02:35:05,VALID,1008.84,VALID,0,VALID,103.062,VALID,0,VALID,23.3433,VALID,355,VALID,0,
2010-09-29, 02:36:05,VALID,1008.84,VALID,0,VALID,103.047,VALID,0,VALID,23.3433,VALID,355,VALID,0,
2010-09-29, 02:37:05,VALID,1008.79,VALID,0,VALID,103.032,VALID,0,VALID,23.3628,VALID,355,VALID,0,
2010-09-29, 02:38:05,VALID,1008.81,VALID,0,VALID,103.024,VALID,0,VALID,23.384,VALID,355,VALID,0,
2010-09-29, 02:39:05,VALID,1008.76,VALID,0,VALID,103.024,VALID,0,VALID,23.3628,VALID,355,VALID,0,
2010-09-29, 02:40:05,VALID,1008.78,VALID,0,VALID,103.024,VALID,0,VALID,23.3645,VALID,355,VALID,0,
2010-09-29, 02:41:05,VALID,1008.78,VALID,0,VALID,103.016,VALID,0,VALID,23.3645,VALID,355,VALID,0,
2010-09-29, 02:42:05,VALID,1008.79,VALID,0,VALID,103.016,VALID,0,VALID,23.3433,VALID,355,VALID,0,
2010-09-29, 02:43:05,VALID,1008.82,VALID,0,VALID,103.016,VALID,0,VALID,23.3433,VALID,355,VALID,0,
2010-09-29, 02:44:05,VALID,1008.8,VALID,0,VALID,103.001,VALID,0,VALID,23.3238,VALID,355,VALID,0,
2010-09-29, 02:45:05,VALID,1008.8,VALID,0,VALID,103.009,VALID,0,VALID,23.3451,VALID,355,VALID,0,
2010-09-29, 02:46:05,VALID,1008.82,VALID,0,VALID,102.993,VALID,0,VALID,23.3645,VALID,355,VALID,0,
2010-09-29, 02:47:05,VALID,1008.8,VALID,0,VALID,102.978,VALID,0,VALID,23.3256,VALID,355,VALID,0,
2010-09-29, 02:48:05,VALID,1008.79,VALID,0,VALID,102.978,VALID,0,VALID,23.3043,VALID,355,VALID,0,
2010-09-29, 02:49:05,VALID,1008.79,VALID,0,VALID,102.971,VALID,0,VALID,23.3238,VALID,355,VALID,0,
2010-09-29, 02:50:05,VALID,1008.8,VALID,0,VALID,102.963,VALID,0,VALID,23.3238,VALID,355,VALID,0,
2010-09-29, 02:51:05,VALID,1008.77,VALID,0,VALID,102.971,VALID,0,VALID,23.3256,VALID,355,VALID,0,
2010-09-29, 02:52:05,VALID,1008.77,VALID,0,VALID,102.948,VALID,0,VALID,23.3433,VALID,355,VALID,0,
2010-09-29, 02:53:05,VALID,1008.77,VALID,0,VALID,102.94,VALID,0,VALID,23.3433,VALID,355,VALID,0,
2010-09-29, 02:54:05,VALID,1008.78,VALID,0,VALID,102.963,VALID,0,VALID,23.3026,VALID,355,VALID,0,
2010-09-29, 02:55:05,VALID,1008.77,VALID,0,VALID,102.925,VALID,0,VALID,23.3026,VALID,355,VALID,0,
2010-09-29, 02:56:05,VALID,1008.76,VALID,0,VALID,102.94,VALID,0,VALID,23.3238,VALID,355,VALID,0,
2010-09-29, 02:57:05,VALID,1008.78,VALID,0,VALID,102.925,VALID,0,VALID,23.3433,VALID,355,VALID,0,
2010-09-29, 02:58:05,VALID,1008.76,VALID,0,VALID,102.902,VALID,0,VALID,23.322,VALID,355,VALID,0,
2010-09-29, 02:59:05,VALID,1008.75,VALID,0,VALID,102.879,VALID,0,VALID,23.3415,VALID,355,VALID,0,
2010-09-29, 03:00:05,VALID,1008.74,VALID,0,VALID,102.879,VALID,0,VALID,23.3628,VALID,355,VALID,0,
2010-09-29, 03:01:05,VALID,1008.75,VALID,0,VALID,102.894,VALID,0.105969,VALID,23.322,VALID,355,VALID,0,
2010-09-29, 03:02:05,VALID,1008.73,VALID,0,VALID,102.879,VALID,0,VALID,23.322,VALID,355,VALID,0,
2010-09-29, 03:03:05,VALID,1008.75,VALID,0,VALID,102.91,VALID,0,VALID,23.2831,VALID,355,VALID,0,
2010-09-29, 03:04:05,VALID,1008.72,VALID,0,VALID,102.91,VALID,0,VALID,23.2831,VALID,355,VALID,0,
2010-09-29, 03:05:05,VALID,1008.71,VALID,0,VALID,102.917,VALID,0.105969,VALID,23.2636,VALID,355,VALID,0,
2010-09-29, 03:06:05,VALID,1008.71,VALID,0,VALID,102.91,VALID,0.105969,VALID,23.2636,VALID,355,VALID,0,
2010-09-29, 03:07:05,VALID,1008.69,VALID,0,VALID,102.917,VALID,0,VALID,23.2866,VALID,355,VALID,0,
2010-09-29, 03:08:05,VALID,1008.67,VALID,0,VALID,102.91,VALID,0,VALID,23.2671,VALID,355,VALID,0,
2010-09-29, 03:09:05,VALID,1008.67,VALID,0,VALID,102.887,VALID,0,VALID,23.2654,VALID,355,VALID,0,
2010-09-29, 03:10:05,VALID,1008.64,VALID,0,VALID,102.833,VALID,0,VALID,23.3061,VALID,355,VALID,0,
2010-09-29, 03:11:05,VALID,1008.65,VALID,0,VALID,102.818,VALID,0,VALID,23.3061,VALID,355,VALID,0,
2010-09-29, 03:12:05,VALID,1008.63,VALID,0,VALID,102.803,VALID,0,VALID,23.3256,VALID,355,VALID,0,
2010-09-29, 03:13:05,VALID,1008.62,VALID,0,VALID,102.818,VALID,0,VALID,23.3043,VALID,355,VALID,0,
2010-09-29, 03:14:05,VALID,1008.6,VALID,0,VALID,102.833,VALID,0,VALID,23.3043,VALID,355,VALID,0,
2010-09-29, 03:15:05,VALID,1008.62,VALID,0,VALID,102.826,VALID,0,VALID,23.3256,VALID,355,VALID,0,
2010-09-29, 03:16:05,VALID,1008.59,VALID,0,VALID,102.81,VALID,0,VALID,23.3043,VALID,355,VALID,0,
2010-09-29, 03:17:05,VALID,1008.58,VALID,0,VALID,102.81,VALID,0,VALID,23.3256,VALID,355,VALID,0,
2010-09-29, 03:18:05,VALID,1008.56,VALID,0,VALID,102.826,VALID,0,VALID,23.3043,VALID,355,VALID,0,
2010-09-29, 03:19:05,VALID,1008.59,VALID,0,VALID,102.795,VALID,0,VALID,23.3043,VALID,355,VALID,0,
2010-09-29, 03:20:05,VALID,1008.58,VALID,0,VALID,102.803,VALID,0,VALID,23.3061,VALID,355,VALID,0,
2010-09-29, 03:21:05,VALID,1008.58,VALID,0,VALID,102.788,VALID,0,VALID,23.3238,VALID,355,VALID,0,
2010-09-29, 03:22:05,VALID,1008.59,VALID,0,VALID,102.78,VALID,0,VALID,23.3043,VALID,355,VALID,0,
2010-09-29, 03:23:05,VALID,1008.58,VALID,0,VALID,102.772,VALID,0,VALID,23.3061,VALID,355,VALID,0,
2010-09-29, 03:24:05,VALID,1008.58,VALID,0,VALID,102.78,VALID,0,VALID,23.3256,VALID,355,VALID,0,
2010-09-29, 03:25:05,VALID,1008.57,VALID,0,VALID,102.757,VALID,0,VALID,23.3256,VALID,355,VALID,0,
2010-09-29, 03:26:05,VALID,1008.58,VALID,0,VALID,102.734,VALID,0,VALID,23.3043,VALID,355,VALID,0,
2010-09-29, 03:27:05,VALID,1008.55,VALID,0,VALID,102.734,VALID,0,VALID,23.3451,VALID,355,VALID,0,
2010-09-29, 03:28:05,VALID,1008.54,VALID,0,VALID,102.719,VALID,0,VALID,23.3043,VALID,355,VALID,0,
2010-09-29, 03:29:05,VALID,1008.56,VALID,0,VALID,102.696,VALID,0,VALID,23.3238,VALID,355,VALID,0,
2010-09-29, 03:30:05,VALID,1008.56,VALID,0,VALID,102.734,VALID,0,VALID,23.3256,VALID,355,VALID,0,
2010-09-29, 03:31:05,VALID,1008.56,VALID,0,VALID,102.727,VALID,0,VALID,23.3256,VALID,355,VALID,0,
2010-09-29, 03:32:05,VALID,1008.57,VALID,0,VALID,102.719,VALID,0,VALID,23.3451,VALID,355,VALID,0,
2010-09-29, 03:33:05,VALID,1008.55,VALID,0,VALID,102.696,VALID,0,VALID,23.3238,VALID,355,VALID,0,
2010-09-29, 03:34:05,VALID,1008.58,VALID,0,VALID,102.711,VALID,0,VALID,23.3238,VALID,355,VALID,0,
2010-09-29, 03:35:05,VALID,1008.55,VALID,0,VALID,102.688,VALID,0,VALID,23.3043,VALID,355,VALID,0,
2010-09-29, 03:36:05,VALID,1008.55,VALID,0,VALID,102.704,VALID,0,VALID,23.3043,VALID,355,VALID,0,
2010-09-29, 03:37:05,VALID,1008.55,VALID,0,VALID,102.711,VALID,0,VALID,23.3043,VALID,355,VALID,0,
2010-09-29, 03:38:05,VALID,1008.56,VALID,0,VALID,102.734,VALID,0,VALID,23.3256,VALID,355,VALID,0,
2010-09-29, 03:39:05,VALID,1008.59,VALID,0,VALID,102.719,VALID,0,VALID,23.3061,VALID,355,VALID,0,
2010-09-29, 03:40:05,VALID,1008.55,VALID,0,VALID,102.711,VALID,0,VALID,23.3061,VALID,355,VALID,0,
2010-09-29, 03:41:05,VALID,1008.57,VALID,0,VALID,102.711,VALID,0,VALID,23.2848,VALID,355,VALID,0,
2010-09-29, 03:42:05,VALID,1008.57,VALID,0,VALID,102.704,VALID,0,VALID,23.2848,VALID,355,VALID,0,
2010-09-29, 03:43:05,VALID,1008.57,VALID,0,VALID,102.711,VALID,0,VALID,23.2866,VALID,355,VALID,0,
2010-09-29, 03:44:05,VALID,1008.57,VALID,0,VALID,102.711,VALID,0,VALID,23.2671,VALID,355,VALID,0,
2010-09-29, 03:45:05,VALID,1008.54,VALID,0,VALID,102.727,VALID,0,VALID,23.2866,VALID,355,VALID,0,
2010-09-29, 03:46:05,VALID,1008.52,VALID,0,VALID,102.711,VALID,0,VALID,23.2459,VALID,355,VALID,0,
2010-09-29, 03:47:05,VALID,1008.55,VALID,0,VALID,102.711,VALID,0,VALID,23.2671,VALID,355,VALID,0,
2010-09-29, 03:48:05,VALID,1008.56,VALID,0,VALID,102.681,VALID,0,VALID,23.2459,VALID,355,VALID,0,
2010-09-29, 03:49:05,VALID,1008.56,VALID,0,VALID,102.658,VALID,0,VALID,23.2866,VALID,355,VALID,0,
2010-09-29, 03:50:05,VALID,1008.58,VALID,0,VALID,102.643,VALID,0,VALID,23.2848,VALID,355,VALID,0,
2010-09-29, 03:51:05,VALID,1008.59,VALID,0,VALID,102.65,VALID,0,VALID,23.2848,VALID,355,VALID,0,
2010-09-29, 03:52:05,VALID,1008.62,VALID,0,VALID,102.65,VALID,0,VALID,23.2654,VALID,355,VALID,0,
2010-09-29, 03:53:05,VALID,1008.62,VALID,0,VALID,102.658,VALID,0,VALID,23.2848,VALID,355,VALID,0,